�N����,����,�~����,�C��,���x,�C��,����,���ϕ���,�ő�u�ԕ���,�ő厞����,���˗�,�I�_���x,�n�����x,�ő啗���N��,DTYPE
"18/09/04","00:10",0.0,26.4,77.2,998.9,89.0,0.7,1.9,89.7,0.00,22.1,26.1,"00:04:16",1
"18/09/04","00:20",0.0,26.5,77.0,998.9,108.9,0.8,2.5,120.9,0.00,22.2,26.2,"00:14:08",1
"18/09/04","00:30",0.0,26.5,77.3,998.6,105.9,0.7,2.1,111.6,0.00,22.2,26.2,"00:20:32",1
"18/09/04","00:40",0.0,26.6,77.2,998.4,88.9,0.7,2.4,120.9,0.00,22.3,26.1,"00:39:12",1
"18/09/04","00:50",0.0,26.6,77.0,998.2,136.4,0.6,1.3,60.1,0.00,22.3,26.2,"00:40:32",1
"18/09/04","01:00",0.0,26.5,77.5,997.7,168.7,0.3,1.2,126.2,0.00,22.3,26.1,"00:50:16",1
"18/09/04","01:10",0.0,26.5,78.0,997.7,130.5,0.6,2.0,70.9,0.00,22.4,26.0,"01:08:48",1
"18/09/04","01:20",0.0,26.7,77.5,997.4,120.5,0.7,2.2,87.4,0.00,22.5,26.2,"01:10:40",1
"18/09/04","01:30",0.0,26.8,77.4,997.0,112.7,1.1,3.2,149.4,0.00,22.6,26.2,"01:20:48",1
"18/09/04","01:40",0.0,26.6,78.0,997.2,48.8,0.5,1.8,144.3,0.00,22.5,26.1,"01:30:56",1
"18/09/04","01:50",0.0,26.5,78.8,997.2,126.7,0.6,1.8,138.6,0.00,22.6,26.1,"01:44:48",1
"18/09/04","02:00",0.0,26.5,79.6,997.0,178.2,0.6,1.7,131.1,0.00,22.7,26.1,"01:58:56",1
"18/09/04","02:10",0.0,26.4,80.2,997.0,153.1,0.6,1.7,139.2,0.00,22.8,25.9,"02:01:44",1
"18/09/04","02:20",0.0,26.2,81.0,996.7,153.4,0.5,1.7,126.1,0.00,22.7,26.0,"02:19:36",1
"18/09/04","02:30",0.0,26.2,80.9,996.5,149.6,0.6,2.5,83.4,0.00,22.7,26.0,"02:20:24",1
"18/09/04","02:40",0.0,26.1,81.9,996.3,137.3,0.7,2.0,158.9,0.00,22.8,26.0,"02:36:56",1
"18/09/04","02:50",0.0,26.1,81.1,996.0,68.9,0.6,1.7,152.0,0.00,22.6,25.9,"02:46:56",1
"18/09/04","03:00",0.0,25.9,81.9,996.3,107.1,0.5,1.9,122.4,0.00,22.6,26.1,"02:52:00",1
"18/09/04","03:10",0.0,25.7,82.8,996.0,232.7,0.3,1.1,150.5,0.00,22.6,25.8,"03:08:08",1
"18/09/04","03:20",0.0,25.6,83.5,996.0,163.1,0.5,2.6,162.6,0.00,22.6,25.6,"03:12:56",1
"18/09/04","03:30",0.0,25.7,83.9,996.0,121.4,0.5,1.8,64.1,0.00,22.8,25.8,"03:20:24",1
"18/09/04","03:40",0.0,25.8,83.8,996.0,358.7,0.3,0.9,102.8,0.00,22.9,25.9,"03:30:32",1
"18/09/04","03:50",0.0,25.9,83.2,995.6,356.6,0.5,1.2,23.2,0.00,22.9,25.7,"03:45:04",1
"18/09/04","04:00",0.0,26.1,82.8,995.6,28.5,0.7,2.1,339.2,0.00,23.0,25.7,"03:51:28",1
"18/09/04","04:10",0.0,26.2,81.9,995.6,76.2,0.7,1.8,105.7,0.00,22.9,25.8,"04:09:20",1
"18/09/04","04:20",0.0,26.3,81.4,995.3,83.7,0.7,1.8,115.0,0.00,22.9,26.0,"04:15:44",1
"18/09/04","04:30",0.0,26.2,81.5,995.6,83.0,0.6,1.8,66.4,0.00,22.8,25.9,"04:27:52",1
"18/09/04","04:40",0.0,26.3,81.5,995.6,54.6,0.7,1.6,68.5,0.00,22.9,25.8,"04:36:08",1
"18/09/04","04:50",0.0,26.4,80.6,995.3,75.1,0.8,2.1,131.2,0.00,22.8,25.6,"04:40:32",1
"18/09/04","05:00",0.0,26.4,80.6,995.3,54.2,0.7,1.8,27.9,0.00,22.8,25.8,"04:54:56",1
"18/09/04","05:10",0.0,26.3,80.8,995.1,49.4,0.5,1.4,100.7,0.00,22.8,25.7,"05:06:08",1
"18/09/04","05:20",0.0,26.4,80.6,995.1,5.9,0.6,1.4,45.6,0.00,22.8,25.6,"05:12:16",1
"18/09/04","05:30",0.0,26.3,80.7,995.1,46.7,0.5,2.4,328.3,0.00,22.8,25.6,"05:20:32",1
"18/09/04","05:40",0.0,26.5,79.8,994.8,65.8,0.7,2.0,96.3,0.00,22.8,25.6,"05:37:52",1
"18/09/04","05:50",0.0,26.6,78.7,995.1,69.2,0.7,2.1,117.1,0.00,22.6,25.6,"05:47:28",1
"18/09/04","06:00",0.0,26.8,78.3,994.6,89.9,1.0,2.4,90.6,0.00,22.7,25.7,"05:58:40",1
"18/09/04","06:10",0.0,27.0,77.3,995.1,70.6,1.0,2.2,117.0,0.00,22.7,25.4,"06:07:44",1
"18/09/04","06:20",0.0,27.0,77.1,994.8,61.4,0.6,1.3,77.1,0.00,22.7,25.6,"06:12:00",1
"18/09/04","06:30",0.0,27.1,77.1,994.8,18.3,0.5,1.8,56.7,0.00,22.8,25.4,"06:22:48",1
"18/09/04","06:40",0.0,27.1,76.8,994.4,29.4,0.7,2.0,18.9,0.00,22.7,25.6,"06:36:08",1
"18/09/04","06:50",0.0,27.2,76.7,994.6,31.7,0.8,2.0,61.2,0.00,22.8,25.7,"06:43:36",1
"18/09/04","07:00",0.0,27.3,76.3,993.9,64.0,0.8,2.4,74.0,0.00,22.8,25.6,"06:57:28",1
"18/09/04","07:10",0.0,27.6,75.4,993.9,49.6,1.3,4.0,5.3,0.01,22.9,25.4,"07:01:36",1
"18/09/04","07:20",0.0,27.7,75.0,993.7,62.9,1.2,2.6,52.4,0.03,22.9,25.6,"07:14:56",1
"18/09/04","07:30",0.0,27.9,74.9,993.9,81.5,1.1,2.7,22.0,0.04,23.1,25.8,"07:20:48",1
"18/09/04","07:40",0.0,28.0,75.4,993.2,78.3,1.0,2.7,44.7,0.08,23.3,25.7,"07:35:20",1
"18/09/04","07:50",0.0,28.6,73.4,993.0,72.1,1.2,2.9,86.1,0.13,23.4,25.7,"07:46:00",1
"18/09/04","08:00",0.0,29.5,73.1,992.7,111.6,1.3,3.2,115.0,0.18,24.2,25.9,"07:52:24",1
"18/09/04","08:10",0.0,29.6,70.6,992.7,131.2,1.6,3.4,161.9,0.24,23.7,26.1,"08:00:16",1
"18/09/04","08:20",0.0,30.0,69.1,992.7,133.5,2.0,6.0,164.6,0.26,23.8,26.0,"08:14:40",1
"18/09/04","08:30",0.0,30.5,69.0,992.2,116.2,1.8,5.1,153.6,0.31,24.2,26.2,"08:24:56",1
"18/09/04","08:40",0.0,30.3,68.2,992.2,118.0,2.2,5.7,134.3,0.24,23.8,26.4,"08:35:52",1
"18/09/04","08:50",0.0,30.8,67.7,992.0,112.2,2.1,5.9,123.3,0.34,24.2,26.5,"08:45:44",1
"18/09/04","09:00",0.0,30.7,65.4,991.8,106.5,2.1,5.2,110.6,0.31,23.5,26.8,"08:57:50",1
"18/09/04","09:10",0.0,30.5,65.7,991.5,113.1,2.2,4.7,105.7,0.22,23.4,26.7,"09:03:44",1
"18/09/04","09:20",0.0,30.2,66.1,991.3,120.1,2.5,6.3,92.5,0.18,23.2,26.9,"09:18:22",1
"18/09/04","09:30",0.0,30.1,66.8,991.1,117.2,2.5,6.0,156.3,0.18,23.3,26.9,"09:29:24",1
"18/09/04","09:40",0.0,29.8,67.3,990.8,105.4,2.3,6.0,114.0,0.15,23.1,27.0,"09:32:40",1
"18/09/04","09:50",0.0,30.0,67.2,990.6,105.3,1.8,5.1,96.5,0.11,23.3,27.1,"09:41:04",1
"18/09/04","10:00",0.0,29.8,67.0,989.9,115.9,1.7,3.6,139.9,0.07,23.1,27.0,"09:53:12",1
"18/09/04","10:10",0.0,29.7,67.3,989.2,95.6,2.1,5.0,103.7,0.07,23.0,26.8,"10:00:56",1
"18/09/04","10:20",0.0,29.6,67.5,988.5,96.7,1.8,4.1,75.5,0.08,23.0,27.0,"10:19:28",1
"18/09/04","10:30",0.0,29.2,68.0,988.2,103.7,2.1,5.7,163.0,0.05,22.7,27.1,"10:25:44",1
"18/09/04","10:40",0.0,29.0,69.5,987.5,123.1,1.8,4.9,110.3,0.03,22.9,27.1,"10:32:56",1
"18/09/04","10:50",0.0,28.8,70.4,987.3,111.0,1.8,4.9,149.6,0.02,22.9,26.9,"10:41:52",1
"18/09/04","11:00",0.0,28.8,68.4,987.3,137.3,2.5,6.2,150.4,0.01,22.4,27.0,"10:51:52",1
"18/09/04","11:10",0.0,28.9,67.6,986.6,130.0,2.6,7.3,145.8,0.01,22.3,26.7,"11:05:52",1
"18/09/04","11:20",0.0,29.0,67.5,985.6,115.2,2.1,6.4,96.3,0.02,22.4,26.9,"11:16:00",1
"18/09/04","11:30",0.0,28.7,69.4,985.6,108.9,2.1,7.1,123.4,0.03,22.6,26.7,"11:20:02",1
"18/09/04","11:40",0.0,28.2,72.2,984.7,104.9,2.5,6.0,113.1,0.04,22.8,26.6,"11:32:32",1
"18/09/04","11:50",0.0,27.8,74.5,984.2,110.9,2.3,5.8,107.2,0.03,22.9,26.7,"11:47:52",1
"18/09/04","12:00",0.2,27.1,78.0,983.5,115.3,2.2,4.9,148.0,0.03,23.0,26.6,"11:51:28",1
"18/09/04","12:10",0.2,26.6,80.2,982.3,110.4,2.7,5.9,92.3,0.00,22.9,26.5,"12:08:32",1
"18/09/04","12:20",0.2,26.3,81.9,981.6,105.4,2.3,5.2,134.6,0.01,23.0,26.4,"12:16:00",1
"18/09/04","12:30",0.2,26.1,83.0,980.2,109.4,2.8,6.5,110.6,0.02,23.0,26.4,"12:23:36",1
"18/09/04","12:40",0.4,25.9,83.8,978.8,107.3,3.1,7.5,97.7,0.04,23.0,26.3,"12:30:02",1
"18/09/04","12:50",0.4,26.0,84.3,978.1,91.0,3.5,7.7,53.7,0.04,23.2,26.3,"12:49:20",1
"18/09/04","13:00",0.6,25.8,85.3,976.9,89.2,3.1,6.3,141.6,0.04,23.2,26.3,"12:59:12",1
"18/09/04","13:10",0.6,25.7,85.7,975.5,103.4,3.1,8.1,116.1,0.02,23.2,26.0,"13:09:14",1
"18/09/04","13:20",0.6,25.6,86.3,973.1,105.0,3.0,6.5,129.0,0.01,23.2,25.8,"13:18:34",1
"18/09/04","13:30",0.8,25.6,86.4,971.7,105.0,3.7,9.6,88.0,0.00,23.2,26.1,"13:21:36",1
"18/09/04","13:40",0.6,25.6,86.4,969.6,102.1,3.7,8.1,118.9,0.00,23.2,25.8,"13:33:54",1
"18/09/04","13:50",0.4,25.5,86.6,968.6,98.0,4.1,10.5,112.5,0.00,23.1,26.0,"13:46:50",1
"18/09/04","14:00",0.8,25.4,87.4,966.5,97.8,3.7,9.8,82.8,0.00,23.2,25.8,"13:58:42",1
"18/09/04","14:10",2.2,25.3,87.9,964.6,110.6,3.9,9.8,105.7,0.00,23.2,25.4,"14:06:44",1
"18/09/04","14:20",4.6,25.1,89.2,962.7,102.5,3.6,8.3,114.8,0.00,23.2,25.0,"14:18:10",1
"18/09/04","14:30",9.8,24.8,90.4,960.3,107.9,3.9,9.6,144.9,0.00,23.2,24.3,"14:24:30",1
"18/09/04","14:40",3.6,24.9,91.0,960.1,120.5,6.6,20.2,143.7,0.00,23.4,24.5,"14:39:18",1
"18/09/04","14:50",0.4,25.8,88.4,962.0,177.1,9.9,25.0,196.9,0.00,23.8,24.7,"14:49:02",1
"18/09/04","15:00",0.4,25.5,88.2,965.8,179.8,11.0,19.8,228.0,0.00,23.4,24.7,"14:57:22",1
"18/09/04","15:10",0.6,25.5,88.2,967.7,186.6,10.3,17.0,195.5,0.00,23.4,24.7,"15:01:08",1
"18/09/04","15:20",0.4,25.6,88.4,971.4,192.7,8.4,15.6,198.9,0.00,23.6,24.9,"15:18:24",1
"18/09/04","15:30",0.6,25.5,88.2,973.1,196.2,5.5,11.1,171.3,0.00,23.4,24.6,"15:22:00",1
"18/09/04","15:40",0.4,25.7,87.3,975.0,203.5,5.2,11.7,203.8,0.00,23.5,24.9,"15:38:14",1
"18/09/04","15:50",0.4,25.7,86.9,976.6,197.6,5.2,12.3,215.5,0.00,23.4,24.7,"15:44:08",1
"18/09/04","16:00",0.4,25.7,87.1,977.8,203.7,3.0,6.8,220.5,0.00,23.4,24.9,"15:53:46",1
"18/09/04","16:10",0.4,25.7,87.1,979.2,218.2,2.7,6.0,227.6,0.00,23.4,24.7,"16:08:12",1
"18/09/04","16:20",0.2,25.7,86.5,980.0,220.3,2.8,7.2,180.0,0.00,23.3,25.0,"16:14:26",1
"18/09/04","16:30",0.2,26.1,84.5,982.1,232.0,3.7,12.4,224.1,0.00,23.3,24.8,"16:25:44",1
"18/09/04","16:40",0.0,26.3,82.7,983.5,237.4,4.0,8.5,200.5,0.00,23.2,24.9,"16:31:44",1
"18/09/04","16:50",0.0,26.5,81.8,984.4,260.2,3.2,9.0,194.8,0.00,23.2,25.0,"16:46:24",1
"18/09/04","17:00",0.0,26.6,81.1,985.4,232.1,2.5,6.4,229.4,0.00,23.1,25.0,"16:55:04",1
"18/09/04","17:10",0.0,26.7,80.5,985.9,230.4,4.0,12.0,205.1,0.00,23.1,25.0,"17:04:00",1
"18/09/04","17:20",0.2,26.3,82.4,986.6,230.3,2.1,6.4,233.0,0.00,23.1,25.0,"17:17:52",1
"18/09/04","17:30",0.2,26.1,83.8,987.3,222.0,2.2,6.8,230.4,0.00,23.2,25.0,"17:23:52",1
"18/09/04","17:40",0.0,26.1,84.3,987.8,199.3,2.1,7.4,209.2,0.01,23.3,24.9,"17:33:20",1
"18/09/04","17:50",0.2,26.0,84.8,988.2,87.0,1.3,4.4,310.2,0.01,23.3,25.1,"17:42:48",1
"18/09/04","18:00",0.0,25.8,85.9,988.7,175.9,1.5,4.8,198.2,0.00,23.3,25.1,"17:53:12",1
"18/09/04","18:10",0.0,25.9,85.3,989.4,200.6,1.8,7.8,223.3,0.00,23.3,25.0,"18:02:24",1
"18/09/04","18:20",0.0,26.0,84.7,989.6,212.8,1.7,4.2,233.3,0.00,23.3,25.1,"18:15:04",1
"18/09/04","18:30",0.0,26.1,84.0,990.4,191.8,1.3,3.5,227.0,0.00,23.2,25.2,"18:21:52",1
"18/09/04","18:40",0.0,26.0,84.4,990.4,186.5,1.3,3.1,132.4,0.00,23.2,25.1,"18:30:32",1
"18/09/04","18:50",0.0,26.3,83.5,990.6,281.9,1.6,4.9,27.8,0.00,23.3,25.1,"18:47:28",1
"18/09/04","19:00",0.0,26.4,82.9,990.8,291.0,1.3,4.9,197.6,0.00,23.3,25.1,"18:57:12",1
"18/09/04","19:10",0.0,26.3,82.1,990.8,286.2,1.0,4.0,351.6,0.00,23.0,25.0,"19:01:28",1
"18/09/04","19:20",0.0,26.1,83.1,991.1,313.6,0.7,2.2,331.7,0.00,23.0,25.1,"19:15:12",1
"18/09/04","19:30",0.0,26.2,83.1,991.3,305.7,1.2,2.6,334.3,0.00,23.1,25.1,"19:21:52",1
"18/09/04","19:40",0.0,26.1,83.7,991.3,269.4,1.3,3.7,288.7,0.00,23.2,25.2,"19:34:08",1
"18/09/04","19:50",0.0,26.2,83.8,991.5,269.0,1.3,2.4,260.6,0.00,23.3,25.2,"19:43:52",1
"18/09/04","20:00",0.0,26.3,83.7,991.8,295.5,1.1,2.1,348.0,0.00,23.4,24.8,"19:55:44",1
"18/09/04","20:10",0.0,26.3,83.5,991.5,284.0,1.0,2.0,329.0,0.00,23.3,25.0,"20:01:04",1
"18/09/04","20:20",0.0,26.3,83.1,991.5,297.7,1.5,3.4,233.6,0.00,23.2,25.0,"20:14:08",1
"18/09/04","20:30",0.0,25.9,84.8,991.8,332.6,1.2,2.0,339.6,0.00,23.2,25.0,"20:20:48",1
"18/09/04","20:40",0.0,25.5,86.8,992.2,323.5,1.0,1.6,341.5,0.00,23.2,25.0,"20:33:36",1
"18/09/04","20:50",0.4,25.4,87.7,992.2,354.7,0.5,0.9,343.8,0.00,23.3,25.0,"20:47:44",1
"18/09/04","21:00",0.2,25.3,89.1,992.2,27.2,0.7,1.6,2.5,0.00,23.4,25.2,"20:50:40",1
"18/09/04","21:10",0.4,25.2,90.0,992.5,132.7,0.6,1.4,108.4,0.00,23.5,25.0,"21:04:32",1
"18/09/04","21:20",1.6,25.1,90.8,992.7,82.9,0.6,1.4,119.6,0.00,23.5,25.0,"21:12:40",1
"18/09/04","21:30",3.8,24.9,91.5,992.2,106.6,0.3,1.3,99.7,0.00,23.5,25.1,"21:29:06",1
"18/09/04","21:40",1.2,24.8,92.1,992.5,162.7,0.7,1.8,113.3,0.00,23.5,24.8,"21:30:56",1
"18/09/04","21:50",0.8,24.7,92.5,992.5,273.5,0.5,1.0,304.3,0.00,23.4,24.9,"21:45:44",1
"18/09/04","22:00",4.0,24.8,92.7,992.5,205.9,0.7,2.1,233.1,0.00,23.6,24.8,"21:58:18",1
"18/09/04","22:10",0.6,24.7,92.8,992.2,208.7,1.8,3.9,194.4,0.00,23.5,24.9,"22:01:52",1
"18/09/04","22:20",0.0,24.9,92.3,993.0,213.3,2.0,4.4,231.7,0.00,23.6,24.9,"22:17:28",1
"18/09/04","22:30",0.0,25.1,91.4,993.0,235.9,1.0,3.2,225.6,0.00,23.6,24.9,"22:21:36",1
"18/09/04","22:40",0.0,25.2,90.9,992.7,280.7,0.8,2.5,178.7,0.00,23.6,24.9,"22:32:40",1
"18/09/04","22:50",0.0,25.0,91.4,992.7,74.4,0.5,1.2,346.6,0.00,23.5,25.0,"22:41:36",1
"18/09/04","23:00",0.0,24.8,91.5,992.5,72.7,0.3,1.2,161.5,0.00,23.4,24.9,"22:58:08",1
"18/09/04","23:10",0.0,24.7,92.1,993.0,159.9,0.5,2.0,178.9,0.00,23.4,25.0,"23:00:56",1
"18/09/04","23:20",0.0,24.7,92.3,992.5,103.5,0.2,1.0,229.9,0.00,23.4,24.9,"23:10:24",1
"18/09/04","23:30",0.0,24.6,92.6,993.2,322.0,0.7,1.2,342.2,0.00,23.4,25.0,"23:24:48",1
"18/09/04","23:40",0.0,24.5,92.8,992.7,341.4,0.7,1.8,340.3,0.00,23.3,25.1,"23:31:12",1
"18/09/04","23:50",0.0,24.4,93.2,993.0,1.9,0.5,1.3,13.2,0.00,23.3,24.9,"23:41:20",1
"18/09/04","24:00",0.0,24.3,93.4,993.0,350.8,1.1,1.9,337.7,0.00,23.2,24.9,"23:54:48",1
